Location: Makanda
(37.6176°N, 89.2090°W)
Time: 01:26:46
(UTC+00:00)

IDEFIX/ARIANE 42P - Pass Details

Date: 23 September 2019
Orbit: 786 x 802 km, 98.3° (Epoch: 21 October)

Event Time Altitude Azimuth Distance (km) Brightness Sun altitude
Rises 10:14:42 0° 5° (N) 3,320 6.1 -18.6°
Reaches altitude 10° 10:17:07 10° 360° (N) 2,386 5.2 -18.1°
Maximum altitude 10:22:08 46° 288° (WNW) 1,070 2.9 -17.1°
Enters shadow 10:25:11 22° 227° (SW) 1,684 3.8 -16.6°
